Flag for Antigua and Barbuda Weather past 2 weeks in Saint John's, Antigua and Barbuda

Now
79 °F

Passing clouds.


Feels Like: 82 °F
Forecast: 75 / 83 °F
Wind: 9 mph from East

Location: Vc Bird International Antigua Airport

Current Time: Dec 21, 2014 at 11:37:07 PM

Latest Report: Dec 21, 2014 at 11:00 PM


Visibility: N/A

Pressure: 30.04 "Hg

Humidity: 79%

Dew point: 72 °F

Location of Saint John'sLocation

Historic Weather in Saint John's — Graph

°F

Saint John's temperature yesterday

Maximum temperature yesterday: 82 °F (at 11:00 AM)
Minimum temperature yesterday: 77 °F (at 12:00 AM)
Average temperature yesterday: 79 °F

Past Weeks' High & Low Weather Summary

 TemperatureHumidityPressure
High84 °F (Dec 7, 1:00 PM)94% (Dec 7, 4:00 AM)30.07 "Hg (Dec 7, 4:00 AM)
Low70 °F (Dec 8, 1:00 AM)58% (Dec 7, 3:00 PM)29.83 "Hg (Dec 6, 10:00 PM)
Average78 °F78%29.95 "Hg
* Reported Dec 6 10:00 PM — Dec 21 10:00 PM, Saint John's, Weather by CustomWeather, © 2014

Note: Actual official high and low records may vary slightly from our data, if they occured in-between our weather recording intervals... More about our weather records

Advertising

Saint John's weather history for previous 24 hours

 ConditionsComfort  
Time TempWeatherWind HumidityBarometerVisibility
10:00 PM
Dec 21
79 °FPassing clouds.8 mph79%30.04 "HgN/A
9:00 PM79 °FPassing clouds.8 mph79%30.04 "HgN/A
8:00 PM77 °FPassing clouds.6 mph79%30.04 "HgN/A
7:00 PM79 °FPassing clouds.8 mph74%30.01 "HgN/A
6:00 PM79 °FPassing clouds.6 mph74%29.98 "HgN/A
5:00 PM81 °FScattered clouds.7 mph70%29.98 "HgN/A
4:00 PM81 °FSprinkles. Scattered clouds.7 mph70%29.98 "HgN/A
3:00 PM82 °FScattered clouds.8 mph66%29.98 "HgN/A
2:00 PM82 °FScattered clouds.7 mph70%29.98 "HgN/A
1:00 PM82 °FPartly sunny.9 mph70%30.01 "HgN/A
12:00 PM81 °FScattered clouds.9 mph74%30.04 "HgN/A
11:00 AM82 °FScattered clouds.9 mph74%30.07 "HgN/A
10:00 AM81 °FScattered clouds.8 mph74%30.04 "HgN/A
9:00 AM81 °FScattered clouds.9 mph74%30.07 "HgN/A
8:00 AM81 °FScattered clouds.10 mph70%30.04 "HgN/A
7:00 AM77 °FScattered clouds.9 mph79%30.01 "HgN/A
6:00 AM77 °FPassing clouds.9 mph79%30.01 "HgN/A
5:00 AM77 °FPassing clouds.10 mph79%29.98 "HgN/A
4:00 AM77 °FPassing clouds.12 mph79%29.98 "HgN/A
3:00 AM77 °FPassing clouds.10 mph79%29.98 "HgN/A
2:00 AM77 °FPassing clouds.9 mph79%30.01 "HgN/A
1:00 AM77 °FPassing clouds.8 mph79%30.01 "HgN/A
12:00 AM77 °FPassing clouds.9 mph79%30.04 "HgN/A
11:00 PM
Dec 20
79 °FPassing clouds.9 mph74%30.04 "HgN/A
Weather by CustomWeather, © 2014

See weather overviewHow to use our weather pages